Content
SEND FEEDBACK

Daily
Averages
Monthly
Summary
United States of America

DES PLAINES, ILLINOIS


Home > North America > United States > Illinois
Elevation: 651 feet     Latitude: 42 00N     Longitude: 087 54W

WEATHER
 
SELECT A DAY
Number of Records: 194,962;   Date Range: 7/8/95 - 8/12/14
 
SHARE

PRINT THIS DATA

[ ← Previous Day ]
WEATHER ALMANAC - JANUARY 14, 2013
[ Next Day → ]
[ °C ]   °F
Weather ElementAverageHighLow
Temperature17.9 °F26.1 °F (2:52 pm)10.9 °F (6:52 am)
Dewpoint8.5 °F10.9 °F (3:52 pm)5 °F (6:52 am)
Humidity67.3 %79 % (1:22 am)47 % (2:52 pm)
Barometer30.44 in30.49 in (7:52 am)30.27 in (1:22 am)
Wind Speed4.6 mph8.1 mph (1:52 am)
Weather ElementAverage
Visibility10 mi
Wind DirectionSW (225.9 °)

Weather ElementTotal
Precipitation---
Heating Degree Days46.5 (Base 65)
Averaged from 22 records on January 14, 2013
WEATHER CONDITIONS BREAKOUT
WIND DIRECTION BREAKOUT
WEATHER BY HOUR - JANUARY 14, 2013
[ °C ]   °F
Local TimeTemperatureDewpointHumidityBarometerVisibilityWind DirectionWind SpeedGust SpeedPrecipitationEventsConditions
12:52 AM14.0 °F6.1 °F71 %30.29 in10.0 miWest (270°)5.8 mphOvercast
1:22 AM12.2 °F6.8 °F79 %30.27 in10.0 miWNW (290°)5.8 mphScattered Clouds
1:52 AM12.9 °F6.1 °F74 %30.33 in10.0 miWest (280°)8.1 mphClear
3:52 AM12.9 °F6.1 °F74 %30.40 in10.0 miSW (220°)5.8 mphClear
4:52 AM12.0 °F6.1 °F77 %30.40 in10.0 miWSW (250°)5.8 mphClear
6:52 AM10.9 °F5.0 °F77 %30.48 in10.0 miWest (280°)6.9 mphClear
7:52 AM12.0 °F6.1 °F77 %30.49 in10.0 miNW (310°)8.1 mphClear
8:52 AM14.0 °F7.0 °F74 %30.47 in10.0 miWNW (300°)8.1 mphClear
9:52 AM16.0 °F8.1 °F71 %30.47 in10.0 miWNW (300°)8.1 mphClear
10:52 AM19.0 °F10.0 °F68 %30.46 in10.0 miNNW (330°)5.8 mphClear
11:52 AM21.0 °F8.1 °F57 %30.46 in10.0 miWest (270°)4.6 mphClear
12:52 PM23.0 °F10.0 °F58 %30.46 in10.0 miWNW (290°)5.8 mphClear
2:52 PM26.1 °F8.1 °F47 %30.47 in10.0 miWest (280°)3.5 mphClear
3:52 PM25.0 °F10.9 °F55 %30.48 in10.0 miCalmClear
4:52 PM23.0 °F10.0 °F58 %30.48 in10.0 miSSW (200°)5.8 mphClear
5:52 PM23.0 °F9.0 °F55 %30.47 in10.0 miWest (260°)3.5 mphClear
6:52 PM21.9 °F10.0 °F60 %30.47 in10.0 miCalmClear
7:52 PM21.0 °F10.9 °F65 %30.47 in10.0 miCalmClear
8:52 PM19.9 °F10.9 °F68 %30.46 in10.0 miCalmClear
9:52 PM19.0 °F10.9 °F71 %30.47 in10.0 miWest (270°)3.5 mphClear
10:52 PM18.0 °F10.0 °F71 %30.45 in10.0 miWNW (290°)3.5 mphClear
11:52 PM17.1 °F10.0 °F74 %30.46 in10.0 miWest (280°)3.5 mphClear
Hourly data recorded from KPWK, located miles away from Des Plaines, Illinois







STORIES FROM OUR PARTNERS